Regional Weather Roundup
Issued by NWS

Home | Current Version | Previous Version | Graphics & Text | Print | Product List | Glossary Off
Versions: 1 2 3 4 5 6 7 8 9 10 11 12 13 14 15 16 17 18 19 20 21 22 23 24 25 26 27 28 29 30 31 32 33 34 35 36 37 38 39 40 41 42 43 44 45 46 47 48 49 50

000
ASUS43 KDTX 011701
RWRMI
MICHIGAN HOURLY REGIONAL WEATHER ROUNDUP
NATIONAL WEATHER SERVICE DETROIT/PONTIAC MI
100 PM EDT WED APR 01 2015

NOTE: "FAIR" INDICATES FEW OR NO CLOUDS BELOW 12,000 FEET WITH NO
SIGNIFICANT WEATHER AND/OR OBSTRUCTION TO VISIBILITY.

MIZ047>049-052>055-059>063-066>070-074>076-081>083-011800-
SOUTHEAST LOWER MICHIGAN

CITY           SKY/WX    TMP DP  RH WIND       PRES   REMARKS
ADRIAN         SUNNY     58  38  47 W12G23    30.11F
ALMA           MOSUNNY   47  34  59 SE3       30.11F
ANN ARBOR      SUNNY     56  37  49 W9        30.10F
BAD AXE        SUNNY     45  27  49 S8        30.12F
CARO           SUNNY     47  32  56 E3        30.12S
DETROIT CITY   SUNNY     50  35  56 E8        30.13S
DETROIT        SUNNY     53  35  50 CALM      30.12S
FLINT          SUNNY     53  33  46 VRB5      30.11F
GROSSE ILE     SUNNY     45  36  70 SE8       30.12S
HILLSDALE      SUNNY     58  37  44 W12G18    30.10S
HOWELL         SUNNY     51  33  48 W5        30.09F

CITY           SKY/WX    TMP DP  RH WIND       PRES   REMARKS
JACKSON        SUNNY     58  36  43 W9        30.09F
LAMBERTVILLE   SUNNY     55  37  50 W9        30.13S
LANSING        SUNNY     53  32  44 MISG      30.11S
LAPEER         FAIR      41  34  75 SE5       30.13S
MASON          SUNNY     53  35  49 W3        30.10S
MONROE         SUNNY     52  39  62 W6        30.10F
MT. CLEMENS    PTSUNNY   36  36 100 E5        30.12S FOG     WCI  32
PONTIAC        SUNNY     51  31  46 W8        30.10S
PORT HOPE        N/A     35  27  72 E14       30.12S WCI  26
PORT HURON     MOSUNNY   43  37  81 SE6       30.14F
TRI CITIES     SUNNY     48  34  58 VRB3      30.12F
TROY           SUNNY     51  34  53 CALM      30.13S
SAGINAW HB     SUNNY     46  34  61 SE3       30.11F
$$
MIZ043>046-050>051-056>058-064>065-071>073-077>080-011800-
SOUTHWEST LOWER MICHIGAN

CITY           SKY/WX    TMP DP  RH WIND       PRES   REMARKS
BATTLE CREEK   SUNNY     59  36  42 VRB6G17   30.09F
BENTON HARBOR  SUNNY     58  37  45 VRB6      30.07F
BIG RAPIDS     MOSUNNY   49  33  54 SE3       30.07F
COLDWATER      SUNNY     58  35  41 W9        30.10F
FREMONT        FAIR      53  26  34 S5        30.07F
HOLLAND        MOSUNNY   59  37  44 SW6       30.08F
GRAND RAPIDS   MOSUNNY   55  36  48 VRB3      30.08F
IONIA          FAIR      50  36  58 CALM      30.09S
KALAMAZOO      SUNNY     59  37  44 W10G18    30.09F
LUDINGTON      CLOUDY    43  33  67 CALM      30.07S
MARSHALL       SUNNY     59  36  41 W13G23    30.08F
MOUNT PLEASANT CLOUDY    47  34  59 S3        30.10F
MUSKEGON       PTSUNNY   56  31  38 S7        30.07F
SOUTH HAVEN    MOSUNNY   59  33  37 W10       30.07F
$$
MIZ016>042-011800-
NORTHERN LOWER MICHIGAN

CITY           SKY/WX    TMP DP  RH WIND       PRES   REMARKS
ALPENA         SUNNY     44  25  47 E12       30.10S
BEAVER ISLAND  SUNNY     45  31  59 S7        30.06S
BELLAIRE       SUNNY     49  29  44 S7        30.06F
CADILLAC       SUNNY     49  32  51 S9        30.05F
CHARLEVOIX     SUNNY     42  33  69 N8        30.09S
FRANKFORT      PTSUNNY   49  30  48 W6        30.07S
GAYLORD        SUNNY     45  29  53 S12       30.05S
GRAYLING       SUNNY     47  26  44 S9        30.07F
HARBOR SPRINGS SUNNY     47  31  53 SW5       30.07R
HOUGHTON LAKE  SUNNY     47  28  47 S10       30.08F
OSCODA         SUNNY     44  23  44 E6        30.12F
PELLSTON       SUNNY     46  31  55 SE7       30.07F
ROGERS CITY    SUNNY     46  31  57 SE9       30.09F
TRAVERSE CITY  MOSUNNY   51  34  52 VRB6      30.04F
$$
MIZ007>008-015-011800-
EASTERN UPPER MICHIGAN

CITY           SKY/WX    TMP DP  RH WIND       PRES   REMARKS
KINROSS        PTSUNNY   39  32  75 SE14      30.07S WCI  31
MACKINAC ISLAN SUNNY     36  33  91 E7        30.07S WCI  30
NEWBERRY       SUNNY     37  31  79 S12       30.04S WCI  29
S. S. MARIE    MOSUNNY   38  29  70 SE7       30.07S WCI  33
$$
MIZ004>006-011>014-085-011800-
CENTRAL UPPER MICHIGAN

CITY           SKY/WX    TMP DP  RH WIND       PRES   REMARKS
MANISTIQUE     CLOUDY    32  32  97 S6        30.06S WCI  27
ESCANABA       CLOUDY    34  30  86 E3        30.06S
MENOMINEE      CLOUDY    39  30  70 SE7       30.03F WCI  34
SAWYER-GWINN   CLOUDY    37  30  75 S14       29.98F WCI  29
$$
MIZ001>003-009>011-084-011800-
WESTERN UPPER MICHIGAN

CITY           SKY/WX    TMP DP  RH WIND       PRES   REMARKS
IRON MOUNTAIN  CLOUDY    41  30  65 SE10      29.97F
HOUGHTON       CLOUDY    32  28  85 E9        29.90F WCI  24
COPPER HARBOR    N/A     34  30  85 SW10G23   29.93F WCI  26
IRONWOOD       PTSUNNY   48  32  53 SE12G20   29.75F
$$

ABBREVIATIONS USED IN REMARKS
   TC - TEMPERATURE IN CELSIUS
  WCI - WIND CHILL INDEX
   HX - HEAT INDEX
  VSB - VISIBILITY



USA.gov is the U.S. government's official web portal to all federal, state and local government web resources and services.